,,PA_Meas_PMT16A,,PR_Meas_QMR101_102,,RH_Meas_QMH101,,SR_Meas_QMS101,,TA_Meas_QMH101,,GenWind,,GenWind,
time,status,PA,status,PR,status,RH,status,SR,status,TA,status,DirAvg,status,SpdAvg,
2013-05-11, 00:00:05,VALID,917.303,VALID,0,VALID,94.8124,VALID,0,VALID,20.873,VALID,301,VALID,0,
2013-05-11, 00:01:05,VALID,917.349,VALID,0,VALID,94.82,VALID,0,VALID,20.8941,VALID,301,VALID,0,
2013-05-11, 00:02:05,VALID,917.366,VALID,0,VALID,94.8048,VALID,0,VALID,20.873,VALID,301,VALID,0,
2013-05-11, 00:03:05,VALID,917.37,VALID,0,VALID,94.8582,VALID,0,VALID,20.8925,VALID,301,VALID,0,
2013-05-11, 00:04:05,VALID,917.399,VALID,0,VALID,94.82,VALID,0,VALID,20.8925,VALID,301,VALID,0,
2013-05-11, 00:05:05,VALID,917.432,VALID,0,VALID,94.7743,VALID,0,VALID,20.9136,VALID,301,VALID,0,
2013-05-11, 00:06:05,VALID,917.404,VALID,0,VALID,94.7133,VALID,0,VALID,20.8925,VALID,301,VALID,0,
2013-05-11, 00:07:05,VALID,917.371,VALID,0,VALID,94.6905,VALID,0,VALID,20.8925,VALID,220,VALID,0,
2013-05-11, 00:08:05,VALID,917.355,VALID,0,VALID,94.7514,VALID,0,VALID,20.8925,VALID,333,VALID,0,
2013-05-11, 00:09:05,VALID,917.344,VALID,0,VALID,94.6371,VALID,0,VALID,20.8714,VALID,318,VALID,0,
2013-05-11, 00:10:05,VALID,917.287,VALID,0,VALID,94.538,VALID,0,VALID,20.8551,VALID,235,VALID,0,
2013-05-11, 00:11:05,VALID,917.304,VALID,0,VALID,94.538,VALID,0,VALID,20.8957,VALID,292,VALID,0,
2013-05-11, 00:12:05,VALID,917.265,VALID,0,VALID,94.5456,VALID,0,VALID,20.8746,VALID,309,VALID,0,
2013-05-11, 00:13:05,VALID,917.29,VALID,0,VALID,94.5685,VALID,0,VALID,20.8551,VALID,309,VALID,0,
2013-05-11, 00:14:05,VALID,917.274,VALID,0,VALID,94.6142,VALID,0,VALID,20.8535,VALID,309,VALID,0,
2013-05-11, 00:15:05,VALID,917.263,VALID,0,VALID,94.5685,VALID,0,VALID,20.8551,VALID,283,VALID,0,
2013-05-11, 00:16:05,VALID,917.232,VALID,0,VALID,94.6676,VALID,0,VALID,20.8551,VALID,294,VALID,0,
2013-05-11, 00:17:05,VALID,917.257,VALID,0,VALID,94.6828,VALID,0,VALID,20.8535,VALID,338,VALID,0,
2013-05-11, 00:18:05,VALID,917.27,VALID,0,VALID,94.6981,VALID,0,VALID,20.8535,VALID,354,VALID,0,
2013-05-11, 00:19:05,VALID,917.294,VALID,0,VALID,94.6981,VALID,0,VALID,20.8746,VALID,354,VALID,0,
2013-05-11, 00:20:05,VALID,917.274,VALID,0,VALID,94.7743,VALID,0,VALID,20.873,VALID,354,VALID,0,
2013-05-11, 00:21:05,VALID,917.231,VALID,0,VALID,94.7438,VALID,0,VALID,20.873,VALID,1,VALID,0,
2013-05-11, 00:22:05,VALID,917.239,VALID,0,VALID,94.7819,VALID,0,VALID,20.873,VALID,1,VALID,0,
2013-05-11, 00:23:05,VALID,917.272,VALID,0,VALID,94.7591,VALID,0,VALID,20.8519,VALID,33,VALID,0,
2013-05-11, 00:24:05,VALID,917.273,VALID,0,VALID,94.7743,VALID,0,VALID,20.8535,VALID,278,VALID,0,
2013-05-11, 00:25:05,VALID,917.25,VALID,0,VALID,94.7896,VALID,0,VALID,20.8324,VALID,213,VALID,0,
2013-05-11, 00:26:05,VALID,917.252,VALID,0,VALID,94.8353,VALID,0,VALID,20.8535,VALID,207,VALID,0,
2013-05-11, 00:27:05,VALID,917.246,VALID,0,VALID,94.8887,VALID,0,VALID,20.834,VALID,207,VALID,0,
2013-05-11, 00:28:05,VALID,917.238,VALID,0,VALID,94.8734,VALID,0,VALID,20.8145,VALID,207,VALID,0,
2013-05-11, 00:29:05,VALID,917.214,VALID,0,VALID,94.8582,VALID,0,VALID,20.8356,VALID,207,VALID,0,
2013-05-11, 00:30:05,VALID,917.197,VALID,0,VALID,94.9344,VALID,0,VALID,20.8161,VALID,207,VALID,0,
2013-05-11, 00:31:05,VALID,917.214,VALID,0,VALID,94.9954,VALID,0,VALID,20.795,VALID,207,VALID,0,
2013-05-11, 00:32:05,VALID,917.219,VALID,0,VALID,94.9573,VALID,0,VALID,20.8161,VALID,207,VALID,0,
2013-05-11, 00:33:05,VALID,917.184,VALID,0,VALID,95.003,VALID,0.107441,VALID,20.8145,VALID,326,VALID,0,
2013-05-11, 00:34:05,VALID,917.209,VALID,0,VALID,94.9496,VALID,0,VALID,20.8356,VALID,343,VALID,0,
2013-05-11, 00:35:05,VALID,917.183,VALID,0,VALID,94.9496,VALID,0,VALID,20.8356,VALID,343,VALID,0,
2013-05-11, 00:36:05,VALID,917.173,VALID,0,VALID,94.9649,VALID,0,VALID,20.8145,VALID,343,VALID,0,
2013-05-11, 00:37:05,VALID,917.175,VALID,0,VALID,94.9649,VALID,0,VALID,20.8356,VALID,286,VALID,0,
2013-05-11, 00:38:05,VALID,917.191,VALID,0,VALID,94.9954,VALID,0,VALID,20.8551,VALID,312,VALID,0,
2013-05-11, 00:39:05,VALID,917.146,VALID,0,VALID,95.0564,VALID,0,VALID,20.834,VALID,312,VALID,0,
2013-05-11, 00:40:05,VALID,917.137,VALID,0,VALID,94.9878,VALID,0,VALID,20.8145,VALID,312,VALID,0,
2013-05-11, 00:41:05,VALID,917.15,VALID,0,VALID,95.0792,VALID,0,VALID,20.8145,VALID,3,VALID,0,
2013-05-11, 00:42:05,VALID,917.121,VALID,0,VALID,95.0869,VALID,0,VALID,20.8145,VALID,21,VALID,0,
2013-05-11, 00:43:05,VALID,917.096,VALID,0,VALID,95.0335,VALID,0,VALID,20.8145,VALID,12,VALID,0,
2013-05-11, 00:44:05,VALID,917.089,VALID,0,VALID,95.0792,VALID,0,VALID,20.8161,VALID,8,VALID,0,
2013-05-11, 00:45:05,VALID,917.08,VALID,0,VALID,95.0792,VALID,0,VALID,20.795,VALID,8,VALID,0,
2013-05-11, 00:46:05,VALID,917.074,VALID,0,VALID,95.0792,VALID,0,VALID,20.7966,VALID,10,VALID,0,
2013-05-11, 00:47:05,VALID,917.036,VALID,0,VALID,95.125,VALID,0,VALID,20.7544,VALID,21,VALID,0,
2013-05-11, 00:48:05,VALID,917.049,VALID,0,VALID,95.1783,VALID,0,VALID,20.7755,VALID,19,VALID,0,
2013-05-11, 00:49:05,VALID,917.053,VALID,0,VALID,95.0945,VALID,0,VALID,20.7755,VALID,26,VALID,0,
2013-05-11, 00:50:05,VALID,917.085,VALID,0,VALID,95.0869,VALID,0,VALID,20.7771,VALID,21,VALID,0,
2013-05-11, 00:51:05,VALID,917.062,VALID,0,VALID,95.0488,VALID,0,VALID,20.756,VALID,19,VALID,0,
2013-05-11, 00:52:05,VALID,917.035,VALID,0,VALID,94.9496,VALID,0,VALID,20.7365,VALID,42,VALID,0,
2013-05-11, 00:53:05,VALID,917.043,VALID,0,VALID,94.9039,VALID,0,VALID,20.717,VALID,343,VALID,0,
2013-05-11, 00:54:05,VALID,917.003,VALID,0,VALID,94.9115,VALID,0,VALID,20.7365,VALID,32,VALID,0,
2013-05-11, 00:55:05,VALID,916.959,VALID,0,VALID,94.9039,VALID,0,VALID,20.7365,VALID,11,VALID,0,
2013-05-11, 00:56:05,VALID,916.917,VALID,0,VALID,94.8887,VALID,0,VALID,20.756,VALID,11,VALID,0,
2013-05-11, 00:57:05,VALID,916.893,VALID,0,VALID,94.8887,VALID,0,VALID,20.756,VALID,11,VALID,0,
2013-05-11, 00:58:05,VALID,916.838,VALID,0,VALID,94.8887,VALID,0,VALID,20.7771,VALID,11,VALID,0,
2013-05-11, 00:59:05,VALID,916.794,VALID,0,VALID,94.8582,VALID,0,VALID,20.7755,VALID,17,VALID,0,
2013-05-11, 01:00:05,VALID,916.741,VALID,0,VALID,94.8124,VALID,0,VALID,20.7966,VALID,17,VALID,0,
2013-05-11, 01:01:05,VALID,916.76,VALID,0,VALID,94.8277,VALID,0,VALID,20.795,VALID,18,VALID,0,
2013-05-11, 01:02:05,VALID,916.717,VALID,0,VALID,94.7896,VALID,0,VALID,20.8161,VALID,18,VALID,0,
2013-05-11, 01:03:05,VALID,916.701,VALID,0,VALID,94.7057,VALID,0,VALID,20.795,VALID,341,VALID,0,
2013-05-11, 01:04:05,VALID,916.651,VALID,0,VALID,94.7362,VALID,0,VALID,20.795,VALID,341,VALID,0,
2013-05-11, 01:05:05,VALID,916.608,VALID,0,VALID,94.7438,VALID,0,VALID,20.7755,VALID,341,VALID,0,
2013-05-11, 01:06:05,VALID,916.563,VALID,0,VALID,94.7896,VALID,0,VALID,20.7755,VALID,351,VALID,0,
2013-05-11, 01:07:05,VALID,916.529,VALID,0,VALID,94.7209,VALID,0,VALID,20.7576,VALID,1,VALID,0,
2013-05-11, 01:08:05,VALID,916.535,VALID,0,VALID,94.8277,VALID,0,VALID,20.7365,VALID,347,VALID,0,
2013-05-11, 01:09:05,VALID,916.537,VALID,0,VALID,94.8353,VALID,0,VALID,20.7381,VALID,347,VALID,0,
2013-05-11, 01:10:05,VALID,916.548,VALID,0,VALID,94.8505,VALID,0,VALID,20.717,VALID,347,VALID,0,
2013-05-11, 01:11:05,VALID,916.533,VALID,0,VALID,94.8582,VALID,0,VALID,20.6975,VALID,357,VALID,0,
2013-05-11, 01:12:05,VALID,916.534,VALID,0,VALID,94.9268,VALID,0,VALID,20.699,VALID,351,VALID,0,
2013-05-11, 01:13:05,VALID,916.512,VALID,0,VALID,95.0259,VALID,0.107441,VALID,20.6975,VALID,17,VALID,0,
2013-05-11, 01:14:05,VALID,916.524,VALID,0,VALID,95.0945,VALID,0,VALID,20.7185,VALID,30,VALID,0,
2013-05-11, 01:15:05,VALID,916.534,VALID,0,VALID,95.1402,VALID,0,VALID,20.678,VALID,14,VALID,0,
2013-05-11, 01:16:05,VALID,916.504,VALID,0,VALID,95.1707,VALID,0.107441,VALID,20.699,VALID,4,VALID,0,
2013-05-11, 01:17:05,VALID,916.48,VALID,0,VALID,95.1783,VALID,0,VALID,20.6795,VALID,347,VALID,0,
2013-05-11, 01:18:05,VALID,916.471,VALID,0,VALID,95.2546,VALID,0,VALID,20.678,VALID,359,VALID,0,
2013-05-11, 01:19:05,VALID,916.459,VALID,0,VALID,95.3232,VALID,0,VALID,20.678,VALID,328,VALID,0,
2013-05-11, 01:20:05,VALID,916.446,VALID,0,VALID,95.3842,VALID,0,VALID,20.678,VALID,4,VALID,0,
2013-05-11, 01:21:05,VALID,916.478,VALID,0,VALID,95.4071,VALID,0,VALID,20.678,VALID,343,VALID,0,
2013-05-11, 01:22:05,VALID,916.448,VALID,0,VALID,95.3994,VALID,0,VALID,20.678,VALID,25,VALID,0,
2013-05-11, 01:23:05,VALID,916.473,VALID,0,VALID,95.4299,VALID,0,VALID,20.6585,VALID,347,VALID,0,
2013-05-11, 01:24:05,VALID,916.449,VALID,0,VALID,95.4757,VALID,0,VALID,20.699,VALID,347,VALID,0,
2013-05-11, 01:25:05,VALID,916.428,VALID,0,VALID,95.468,VALID,0,VALID,20.678,VALID,348,VALID,0,
2013-05-11, 01:26:05,VALID,916.433,VALID,0,VALID,95.4985,VALID,0,VALID,20.678,VALID,353,VALID,0,
2013-05-11, 01:27:05,VALID,916.384,VALID,0,VALID,95.4757,VALID,0,VALID,20.6975,VALID,353,VALID,0,
2013-05-11, 01:28:05,VALID,916.373,VALID,0,VALID,95.4757,VALID,0,VALID,20.6975,VALID,353,VALID,0,
2013-05-11, 01:29:05,VALID,916.385,VALID,0,VALID,95.4604,VALID,0,VALID,20.6975,VALID,353,VALID,0,
2013-05-11, 01:30:05,VALID,916.36,VALID,0,VALID,95.4452,VALID,0,VALID,20.6975,VALID,352,VALID,0,
2013-05-11, 01:31:05,VALID,916.364,VALID,0,VALID,95.4071,VALID,0,VALID,20.717,VALID,353,VALID,0,
2013-05-11, 01:32:05,VALID,916.375,VALID,0,VALID,95.4375,VALID,0,VALID,20.7576,VALID,353,VALID,0,
2013-05-11, 01:33:05,VALID,916.388,VALID,0,VALID,95.4223,VALID,0,VALID,20.7576,VALID,353,VALID,0,
2013-05-11, 01:34:05,VALID,916.353,VALID,0,VALID,95.4375,VALID,0,VALID,20.7365,VALID,352,VALID,0,
2013-05-11, 01:35:05,VALID,916.342,VALID,0,VALID,95.4833,VALID,0,VALID,20.756,VALID,353,VALID,0,
2013-05-11, 01:36:05,VALID,916.363,VALID,0,VALID,95.4985,VALID,0,VALID,20.756,VALID,353,VALID,0,
2013-05-11, 01:37:05,VALID,916.335,VALID,0,VALID,95.468,VALID,0.107441,VALID,20.756,VALID,353,VALID,0,
2013-05-11, 01:38:05,VALID,916.323,VALID,0,VALID,95.4909,VALID,0,VALID,20.7755,VALID,355,VALID,0,
2013-05-11, 01:39:05,VALID,916.324,VALID,0,VALID,95.4604,VALID,0,VALID,20.756,VALID,336,VALID,0,
2013-05-11, 01:40:05,VALID,916.32,VALID,0,VALID,95.5519,VALID,0,VALID,20.7576,VALID,344,VALID,0,
2013-05-11, 01:41:05,VALID,916.313,VALID,0,VALID,95.5595,VALID,0,VALID,20.756,VALID,344,VALID,0,
2013-05-11, 01:42:05,VALID,916.291,VALID,0,VALID,95.5748,VALID,0,VALID,20.756,VALID,344,VALID,0,
2013-05-11, 01:43:05,VALID,916.29,VALID,0,VALID,95.6129,VALID,0,VALID,20.7755,VALID,8,VALID,0,
2013-05-11, 01:44:05,VALID,916.268,VALID,0,VALID,95.5976,VALID,0.107441,VALID,20.756,VALID,1,VALID,0,
2013-05-11, 01:45:05,VALID,916.265,VALID,0,VALID,95.6205,VALID,0,VALID,20.7365,VALID,18,VALID,0,
2013-05-11, 01:46:05,VALID,916.273,VALID,0,VALID,95.6662,VALID,0,VALID,20.7771,VALID,24,VALID,0,
2013-05-11, 01:47:05,VALID,916.266,VALID,0,VALID,95.6662,VALID,0,VALID,20.756,VALID,24,VALID,0,
2013-05-11, 01:48:05,VALID,916.243,VALID,0,VALID,95.6891,VALID,0,VALID,20.756,VALID,22,VALID,0,
2013-05-11, 01:49:05,VALID,916.214,VALID,0,VALID,95.712,VALID,0,VALID,20.756,VALID,18,VALID,0,
2013-05-11, 01:50:05,VALID,916.154,VALID,0,VALID,95.7501,VALID,0,VALID,20.7576,VALID,21,VALID,0,
2013-05-11, 01:51:05,VALID,916.178,VALID,0,VALID,95.8111,VALID,0,VALID,20.7771,VALID,14,VALID,0,
2013-05-11, 01:52:05,VALID,916.165,VALID,0,VALID,95.8263,VALID,0,VALID,20.7966,VALID,7,VALID,0,
2013-05-11, 01:53:05,VALID,916.129,VALID,0,VALID,95.8568,VALID,0,VALID,20.7755,VALID,6,VALID,0,
2013-05-11, 01:54:05,VALID,916.11,VALID,0,VALID,95.834,VALID,0,VALID,20.756,VALID,25,VALID,0,
2013-05-11, 01:55:05,VALID,916.073,VALID,0,VALID,95.8873,VALID,0,VALID,20.7755,VALID,18,VALID,0,
2013-05-11, 01:56:05,VALID,916.048,VALID,0,VALID,95.9026,VALID,0,VALID,20.7771,VALID,18,VALID,0,
2013-05-11, 01:57:05,VALID,916.018,VALID,0,VALID,95.8873,VALID,0,VALID,20.7771,VALID,18,VALID,0,
2013-05-11, 01:58:05,VALID,915.989,VALID,0,VALID,95.9102,VALID,0,VALID,20.756,VALID,307,VALID,0,
2013-05-11, 01:59:05,VALID,915.935,VALID,0,VALID,95.9102,VALID,0,VALID,20.7365,VALID,345,VALID,0,
2013-05-11, 02:00:05,VALID,915.92,VALID,0,VALID,95.9026,VALID,0,VALID,20.717,VALID,344,VALID,0,
2013-05-11, 02:01:05,VALID,915.931,VALID,0,VALID,95.9178,VALID,0,VALID,20.7365,VALID,344,VALID,0,
2013-05-11, 02:02:05,VALID,915.852,VALID,0,VALID,95.8568,VALID,0,VALID,20.6975,VALID,66,VALID,0,
2013-05-11, 02:03:05,VALID,915.842,VALID,0,VALID,95.8492,VALID,0,VALID,20.7185,VALID,63,VALID,0,
2013-05-11, 02:04:05,VALID,915.791,VALID,0,VALID,95.8263,VALID,0,VALID,20.6975,VALID,90,VALID,0,
2013-05-11, 02:05:05,VALID,915.786,VALID,0,VALID,95.8187,VALID,0,VALID,20.7185,VALID,90,VALID,0,
2013-05-11, 02:06:05,VALID,915.741,VALID,0,VALID,95.834,VALID,0,VALID,20.6975,VALID,64,VALID,0,
2013-05-11, 02:07:05,VALID,915.724,VALID,0,VALID,95.834,VALID,0,VALID,20.717,VALID,63,VALID,0,
2013-05-11, 02:08:05,VALID,915.693,VALID,0,VALID,95.834,VALID,0,VALID,20.717,VALID,62,VALID,0,
2013-05-11, 02:09:05,VALID,915.69,VALID,0,VALID,95.834,VALID,0,VALID,20.7381,VALID,62,VALID,0,
2013-05-11, 02:10:05,VALID,915.716,VALID,0,VALID,95.8035,VALID,0,VALID,20.6975,VALID,62,VALID,0,
2013-05-11, 02:11:05,VALID,915.68,VALID,0,VALID,95.8035,VALID,0,VALID,20.7185,VALID,62,VALID,0,
2013-05-11, 02:12:05,VALID,915.678,VALID,0,VALID,95.7958,VALID,0,VALID,20.6975,VALID,62,VALID,0,
2013-05-11, 02:13:05,VALID,915.649,VALID,0,VALID,95.834,VALID,0,VALID,20.6975,VALID,62,VALID,0,
2013-05-11, 02:14:05,VALID,915.616,VALID,0,VALID,95.8111,VALID,0,VALID,20.7381,VALID,62,VALID,0,
2013-05-11, 02:15:05,VALID,915.575,VALID,0,VALID,95.773,VALID,0,VALID,20.6975,VALID,62,VALID,0,
2013-05-11, 02:16:05,VALID,915.536,VALID,0,VALID,95.7577,VALID,0,VALID,20.7185,VALID,62,VALID,0,
2013-05-11, 02:17:05,VALID,915.487,VALID,0,VALID,95.7806,VALID,0,VALID,20.7381,VALID,34,VALID,0,
2013-05-11, 02:18:05,VALID,915.486,VALID,0,VALID,95.7349,VALID,0,VALID,20.717,VALID,9,VALID,0,
2013-05-11, 02:19:05,VALID,915.497,VALID,0,VALID,95.7196,VALID,0,VALID,20.6975,VALID,359,VALID,0,
2013-05-11, 02:20:05,VALID,915.469,VALID,0,VALID,95.712,VALID,0,VALID,20.6975,VALID,359,VALID,0,
2013-05-11, 02:21:05,VALID,915.451,VALID,0,VALID,95.6815,VALID,0,VALID,20.699,VALID,356,VALID,0,
2013-05-11, 02:22:05,VALID,915.459,VALID,0,VALID,95.6662,VALID,0,VALID,20.678,VALID,1,VALID,0,
2013-05-11, 02:23:05,VALID,915.464,VALID,0,VALID,95.6662,VALID,0,VALID,20.6585,VALID,359,VALID,0,
2013-05-11, 02:24:05,VALID,915.446,VALID,0,VALID,95.6739,VALID,0,VALID,20.6585,VALID,359,VALID,0,
2013-05-11, 02:25:05,VALID,915.44,VALID,0,VALID,95.6891,VALID,0,VALID,20.6795,VALID,359,VALID,0,
2013-05-11, 02:26:05,VALID,915.424,VALID,0,VALID,95.7272,VALID,0,VALID,20.6795,VALID,359,VALID,0,
2013-05-11, 02:27:05,VALID,915.406,VALID,0,VALID,95.7654,VALID,0,VALID,20.6795,VALID,359,VALID,0,
2013-05-11, 02:28:05,VALID,915.383,VALID,0,VALID,95.7654,VALID,0,VALID,20.678,VALID,23,VALID,0,
2013-05-11, 02:29:05,VALID,915.403,VALID,0,VALID,95.7501,VALID,0,VALID,20.6585,VALID,31,VALID,0,
2013-05-11, 02:30:05,VALID,915.448,VALID,0,VALID,95.7425,VALID,0,VALID,20.6374,VALID,19,VALID,0,
2013-05-11, 02:31:05,VALID,915.431,VALID,0,VALID,95.7425,VALID,0,VALID,20.6795,VALID,12,VALID,0,
2013-05-11, 02:32:05,VALID,915.443,VALID,0,VALID,95.7272,VALID,0,VALID,20.699,VALID,12,VALID,0,
2013-05-11, 02:33:05,VALID,915.448,VALID,0,VALID,95.7349,VALID,0,VALID,20.7185,VALID,12,VALID,0,
2013-05-11, 02:34:05,VALID,915.43,VALID,0,VALID,95.7196,VALID,0,VALID,20.6975,VALID,12,VALID,0,
2013-05-11, 02:35:05,VALID,915.434,VALID,0,VALID,95.7272,VALID,0,VALID,20.7185,VALID,13,VALID,0,
2013-05-11, 02:36:04,VALID,915.42,VALID,0,VALID,95.6967,VALID,0,VALID,20.699,VALID,12,VALID,0,
2013-05-11, 02:37:04,VALID,915.456,VALID,0,VALID,95.6967,VALID,0,VALID,20.699,VALID,12,VALID,0,
2013-05-11, 02:38:04,VALID,915.425,VALID,0,VALID,95.7196,VALID,0,VALID,20.6975,VALID,14,VALID,0,
2013-05-11, 02:39:04,VALID,915.437,VALID,0,VALID,95.7425,VALID,0,VALID,20.6975,VALID,14,VALID,0,
2013-05-11, 02:40:04,VALID,915.428,VALID,0,VALID,95.7349,VALID,0,VALID,20.699,VALID,14,VALID,0,
2013-05-11, 02:41:04,VALID,915.438,VALID,0,VALID,95.7044,VALID,0,VALID,20.678,VALID,14,VALID,0,
2013-05-11, 02:42:04,VALID,915.44,VALID,0,VALID,95.7425,VALID,0,VALID,20.6585,VALID,33,VALID,0,
2013-05-11, 02:43:04,VALID,915.428,VALID,0,VALID,95.773,VALID,0,VALID,20.6585,VALID,23,VALID,0,
2013-05-11, 02:44:04,VALID,915.409,VALID,0,VALID,95.773,VALID,0,VALID,20.6569,VALID,26,VALID,0,
2013-05-11, 02:45:04,VALID,915.399,VALID,0,VALID,95.7958,VALID,0,VALID,20.6585,VALID,26,VALID,0,
2013-05-11, 02:46:04,VALID,915.374,VALID,0,VALID,95.8263,VALID,0,VALID,20.6585,VALID,24,VALID,0,
2013-05-11, 02:47:04,VALID,915.34,VALID,0,VALID,95.8187,VALID,0,VALID,20.6585,VALID,12,VALID,0,
2013-05-11, 02:48:04,VALID,915.313,VALID,0,VALID,95.8416,VALID,0,VALID,20.6585,VALID,26,VALID,0,
2013-05-11, 02:49:04,VALID,915.249,VALID,0,VALID,95.8492,VALID,0,VALID,20.6795,VALID,28,VALID,0,
2013-05-11, 02:50:04,VALID,915.266,VALID,0,VALID,95.8797,VALID,0,VALID,20.639,VALID,28,VALID,0,
2013-05-11, 02:51:04,VALID,915.25,VALID,0,VALID,95.895,VALID,0,VALID,20.639,VALID,28,VALID,0,
2013-05-11, 02:52:04,VALID,915.244,VALID,0,VALID,95.9102,VALID,0.107441,VALID,20.6585,VALID,28,VALID,0,
2013-05-11, 02:53:04,VALID,915.213,VALID,0,VALID,95.9483,VALID,0,VALID,20.678,VALID,28,VALID,0,
2013-05-11, 02:54:04,VALID,915.215,VALID,0,VALID,95.9636,VALID,0,VALID,20.678,VALID,28,VALID,0,
2013-05-11, 02:55:04,VALID,915.19,VALID,0,VALID,95.9331,VALID,0.107441,VALID,20.678,VALID,28,VALID,0,
2013-05-11, 02:56:04,VALID,915.153,VALID,0,VALID,95.895,VALID,0,VALID,20.699,VALID,12,VALID,0,
2013-05-11, 02:57:04,VALID,915.181,VALID,0,VALID,95.9026,VALID,0,VALID,20.699,VALID,12,VALID,0,
2013-05-11, 02:58:04,VALID,915.15,VALID,0,VALID,95.8797,VALID,0.107441,VALID,20.6585,VALID,12,VALID,0,
2013-05-11, 02:59:04,VALID,915.138,VALID,0,VALID,95.9026,VALID,0.107441,VALID,20.6585,VALID,14,VALID,0,
2013-05-11, 03:00:04,VALID,915.121,VALID,0,VALID,95.9026,VALID,0,VALID,20.6585,VALID,12,VALID,0,
2013-05-11, 03:01:04,VALID,915.117,VALID,0,VALID,95.9026,VALID,0,VALID,20.6585,VALID,356,VALID,0,
2013-05-11, 03:02:04,VALID,915.067,VALID,0,VALID,95.8797,VALID,0,VALID,20.6585,VALID,355,VALID,0,
2013-05-11, 03:03:04,VALID,915.095,VALID,0,VALID,95.9254,VALID,0,VALID,20.6585,VALID,355,VALID,0,
2013-05-11, 03:04:04,VALID,915.072,VALID,0,VALID,95.9254,VALID,0,VALID,20.6585,VALID,10,VALID,0,
2013-05-11, 03:05:04,VALID,915.064,VALID,0,VALID,95.9178,VALID,0,VALID,20.639,VALID,354,VALID,0,
2013-05-11, 03:06:04,VALID,915.071,VALID,0,VALID,95.9407,VALID,0,VALID,20.639,VALID,336,VALID,0,
2013-05-11, 03:07:04,VALID,915.066,VALID,0,VALID,95.9483,VALID,0,VALID,20.6179,VALID,335,VALID,0,
2013-05-11, 03:08:04,VALID,915.104,VALID,0,VALID,95.9788,VALID,0,VALID,20.639,VALID,335,VALID,0,
2013-05-11, 03:09:04,VALID,915.076,VALID,0,VALID,95.9483,VALID,0,VALID,20.639,VALID,298,VALID,0,
2013-05-11, 03:10:04,VALID,915.056,VALID,0,VALID,95.9712,VALID,0,VALID,20.639,VALID,316,VALID,0,
2013-05-11, 03:11:04,VALID,915.068,VALID,0,VALID,95.9941,VALID,0,VALID,20.639,VALID,314,VALID,0,
2013-05-11, 03:12:04,VALID,915.074,VALID,0,VALID,96.0093,VALID,0.107441,VALID,20.6585,VALID,314,VALID,0,
2013-05-11, 03:13:04,VALID,915.05,VALID,0,VALID,96.0169,VALID,0,VALID,20.6795,VALID,328,VALID,0,
2013-05-11, 03:14:04,VALID,915.047,VALID,0,VALID,96.0245,VALID,0,VALID,20.66,VALID,328,VALID,0,
2013-05-11, 03:15:04,VALID,915.044,VALID,0,VALID,96.0474,VALID,0,VALID,20.66,VALID,328,VALID,0,
2013-05-11, 03:16:04,VALID,915.053,VALID,0,VALID,96.055,VALID,0,VALID,20.639,VALID,328,VALID,0,
2013-05-11, 03:17:04,VALID,915.037,VALID,0,VALID,96.0932,VALID,0,VALID,20.6374,VALID,328,VALID,0,
2013-05-11, 03:18:04,VALID,915.002,VALID,0,VALID,96.1084,VALID,0,VALID,20.6795,VALID,328,VALID,0,
2013-05-11, 03:19:04,VALID,915.024,VALID,0,VALID,96.1236,VALID,0,VALID,20.6585,VALID,328,VALID,0,
2013-05-11, 03:20:04,VALID,915.03,VALID,0,VALID,96.1389,VALID,0,VALID,20.6585,VALID,328,VALID,0,
2013-05-11, 03:21:04,VALID,915.01,VALID,0,VALID,96.1313,VALID,0,VALID,20.6585,VALID,328,VALID,0,
2013-05-11, 03:22:04,VALID,915.014,VALID,0,VALID,96.1541,VALID,0,VALID,20.6795,VALID,349,VALID,0,
2013-05-11, 03:23:04,VALID,915.018,VALID,0,VALID,96.1541,VALID,0,VALID,20.66,VALID,349,VALID,0,
2013-05-11, 03:24:04,VALID,915.008,VALID,0,VALID,96.1694,VALID,0,VALID,20.66,VALID,349,VALID,0,
2013-05-11, 03:25:04,VALID,914.969,VALID,0,VALID,96.177,VALID,0,VALID,20.639,VALID,349,VALID,0,
2013-05-11, 03:26:04,VALID,914.965,VALID,0,VALID,96.1999,VALID,0,VALID,20.6194,VALID,349,VALID,0,
2013-05-11, 03:27:04,VALID,914.976,VALID,0,VALID,96.2151,VALID,0,VALID,20.66,VALID,349,VALID,0,
2013-05-11, 03:28:04,VALID,914.934,VALID,0,VALID,96.2151,VALID,0,VALID,20.6194,VALID,347,VALID,0,
2013-05-11, 03:29:04,VALID,914.945,VALID,0,VALID,96.2533,VALID,0,VALID,20.6194,VALID,333,VALID,0,
2013-05-11, 03:30:04,VALID,914.94,VALID,0,VALID,96.238,VALID,0,VALID,20.6405,VALID,333,VALID,0,
2013-05-11, 03:31:04,VALID,914.93,VALID,0,VALID,96.2304,VALID,0,VALID,20.639,VALID,333,VALID,0,
2013-05-11, 03:32:04,VALID,914.898,VALID,0,VALID,96.238,VALID,0,VALID,20.6405,VALID,333,VALID,0,
2013-05-11, 03:33:04,VALID,914.878,VALID,0,VALID,96.2456,VALID,0,VALID,20.6194,VALID,333,VALID,0,
2013-05-11, 03:34:04,VALID,914.888,VALID,0,VALID,96.2609,VALID,0,VALID,20.6405,VALID,333,VALID,0,
2013-05-11, 03:35:04,VALID,914.899,VALID,0,VALID,96.2685,VALID,0,VALID,20.6194,VALID,333,VALID,0,
2013-05-11, 03:36:04,VALID,914.858,VALID,0,VALID,96.2914,VALID,0,VALID,20.639,VALID,333,VALID,0,
2013-05-11, 03:37:04,VALID,914.844,VALID,0,VALID,96.299,VALID,0,VALID,20.6374,VALID,333,VALID,0,
2013-05-11, 03:38:04,VALID,914.848,VALID,0,VALID,96.2914,VALID,0.107441,VALID,20.6585,VALID,333,VALID,0,
2013-05-11, 03:39:04,VALID,914.837,VALID,0,VALID,96.2914,VALID,0,VALID,20.66,VALID,301,VALID,0,
2013-05-11, 03:40:04,VALID,914.823,VALID,0,VALID,96.2761,VALID,0,VALID,20.5984,VALID,282,VALID,0,
2013-05-11, 03:41:04,VALID,914.826,VALID,0,VALID,96.2609,VALID,0,VALID,20.5999,VALID,272,VALID,0,
2013-05-11, 03:42:04,VALID,914.762,VALID,0,VALID,96.2685,VALID,0,VALID,20.5804,VALID,272,VALID,0,
2013-05-11, 03:43:04,VALID,914.771,VALID,0,VALID,96.3142,VALID,0,VALID,20.6015,VALID,272,VALID,0,
2013-05-11, 03:44:04,VALID,914.807,VALID,0,VALID,96.3142,VALID,0,VALID,20.5999,VALID,277,VALID,0,
2013-05-11, 03:45:04,VALID,914.76,VALID,0,VALID,96.3295,VALID,0,VALID,20.5804,VALID,277,VALID,0,
2013-05-11, 03:46:04,VALID,914.763,VALID,0,VALID,96.3371,VALID,0,VALID,20.5999,VALID,277,VALID,0,
2013-05-11, 03:47:04,VALID,914.777,VALID,0,VALID,96.3447,VALID,0,VALID,20.5999,VALID,277,VALID,0,
2013-05-11, 03:48:04,VALID,914.783,VALID,0,VALID,96.36,VALID,0,VALID,20.5999,VALID,277,VALID,0,
2013-05-11, 03:49:04,VALID,914.772,VALID,0,VALID,96.3524,VALID,0,VALID,20.5804,VALID,277,VALID,0,
2013-05-11, 03:50:04,VALID,914.777,VALID,0,VALID,96.36,VALID,0,VALID,20.5999,VALID,277,VALID,0,
2013-05-11, 03:51:04,VALID,914.792,VALID,0,VALID,96.3524,VALID,0,VALID,20.5804,VALID,277,VALID,0,
2013-05-11, 03:52:04,VALID,914.82,VALID,0,VALID,96.3752,VALID,0,VALID,20.5999,VALID,277,VALID,0,
2013-05-11, 03:53:04,VALID,914.853,VALID,0,VALID,96.3981,VALID,0,VALID,20.621,VALID,277,VALID,0,
2013-05-11, 03:54:04,VALID,914.858,VALID,0,VALID,96.3905,VALID,0,VALID,20.621,VALID,277,VALID,0,
2013-05-11, 03:55:04,VALID,914.887,VALID,0,VALID,96.3829,VALID,0,VALID,20.6015,VALID,275,VALID,0,
2013-05-11, 03:56:04,VALID,914.872,VALID,0,VALID,96.3829,VALID,0,VALID,20.5609,VALID,275,VALID,0,
2013-05-11, 03:57:04,VALID,914.873,VALID,0,VALID,96.3905,VALID,0,VALID,20.5609,VALID,275,VALID,0,
2013-05-11, 03:58:04,VALID,914.867,VALID,0,VALID,96.4286,VALID,0,VALID,20.5414,VALID,275,VALID,0,
2013-05-11, 03:59:04,VALID,914.826,VALID,0,VALID,96.4286,VALID,0,VALID,20.5609,VALID,275,VALID,0,
2013-05-11, 04:00:04,VALID,914.855,VALID,0,VALID,96.4819,VALID,0,VALID,20.5804,VALID,275,VALID,0,
2013-05-11, 04:01:04,VALID,914.883,VALID,0,VALID,96.4743,VALID,0,VALID,20.5999,VALID,294,VALID,0,